Temperature
17 17 17 17 17 17 17 16 16 16 16 16 16 16 16 16 15 15 15 15 15 15 14 14 14 14 14 14 14 14 14 13 13 13 13 13 13 13
17 17 17 17 17 17 16 16 16 16 16 16 16 16 16 16 15 15 15 15 15 15 14 14 14 14 14 14 14 14 14 13 13 13 13 13 13 13
17 17 17 17 17 16 16 16 16 16 16 16 16 16 16 16 15 15 15 15 15 15 14 14 14 14 14 14 14 14 13 13 13 13 13 13 13 13
17 17 17 17 16 16 16 16 16 16 16 16 16 16 16 15 15 15 15 15 15 15 14 14 14 14 14 14 14 14 13 13 13 13 13 13 12 12
17 17 17 16 16 16 16 16 16 16 16 16 16 16 16 15 15 15 15 15 15 14 14 14 14 14 14 14 14 14 13 13 13 13 13 13 12 12
17 17 17 16 16 16 16 16 16 16 15 15 15 15 15 15 15 15 15 15 15 14 14 14 14 14 14 14 14 13 13 13 13 13 13 12 12 12
17 17 16 16 16 16 16 16 16 15 15 15 15 15 15 15 15 15 14 14 14 14 14 14 14 14 14 14 13 13 13 13 13 13 13 12 12 12
16 16 16 16 16 16 16 15 15 15 15 15 15 15 15 15 15 14 14 14 14 14 14 14 14 13 13 13 13 13 13 13 13 13 13 12 12 12
16 16 16 16 16 16 15 15 15 15 15 15 15 15 15 14 14 14 14 14 13 13 13 13 13 13 13 13 13 13 13 13 13 13 12 12 12 12
16 16 16 16 16 16 15 15 15 15 15 15 15 15 14 14 14 14 13 13 13 13 13 13 13 13 13 13 13 13 13 13 13 12 12 12 12 12
16 16 15 15 15 15 15 15 15 15 15 15 15 15 14 14 14 13 13 13 13 13 13 13 13 13 13 13 13 13 13 12 12 12 12 12 12 12
16 15 15 15 15 15 15 15 15 15 15 15 14 14 14 14 14 13 13 13 12 13 13 13 13 12 12 13 13 13 12 12 12 12 12 12 12 11
15 15 15 15 15 15 15 14 14 14 14 14 14 14 14 14 14 13 13 13 12 12 13 12 12 12 12 12 12 12 12 12 12 12 12 11 11 11
15 15 15 15 15 14 14 14 14 14 14 14 13 13 13 13 13 13 13 12 12 12 12 12 12 12 12 11 11 12 12 12 11 11 11 11 11 11
15 15 14 14 14 14 14 14 14 14 13 13 13 13 13 13 12 12 12 12 12 12 12 12 12 12 11 11 11 11 11 11 11 11 11 11 11 11
15 14 14 14 14 14 14 14 14 13 13 13 13 13 13 12 12 12 12 12 12 12 12 12 11 11 11 11 11 11 11 11 11 11 11 11 10 10
14 14 14 14 14 14 13 13 13 13 13 13 12 12 12 12 12 12 12 11 11 11 11 11 11 11 11 11 10 10 10 10 10 11 10 10 10 10
14 13 14 14 13 13 13 13 13 13 13 12 12 12 12 12 11 11 11 11 11 11 11 11 11 11 10 10 10 10 10 10 10 10 10 10 10 10
13 13 13 13 13 13 13 13 12 12 12 12 12 12 11 11 11 11 11 11 11 11 11 11 10 10 10 10 10 10 9 9 9 9 9 9 9 10
13 13 13 13 13 13 12 12 12 12 12 12 12 11 11 11 11 10 10 10 10 10 10 10 10 10 10 9 9 9 9 9 9 9 9 9 9 9
13 13 13 12 12 12 12 12 12 11 11 11 11 11 11 10 10 10 10 10 10 9 9 10 10 10 9 9 9 9 9 9 9 9 9 8 8 9
12 12 12 12 12 12 11 11 11 11 11 11 11 11 10 10 10 10 10 9 9 9 9 9 9 9 9 8 8 8 8 9 9 9 8 8 8 8
12 12 11 11 11 11 11 11 11 11 10 10 10 10 10 10 9 9 9 9 9 9 8 8 8 8 8 8 8 8 8 8 8 8 8 8 8 8
Wind_Speed
1 1 1 1 2 2 2 3 2 1 2 2 2 2 2 2 2 2 3 3 3 4 4 4 3 4 3 3 3 3 4 4 5 6 6 6 5 5
1 1 1 1 1 1 2 2 3 3 2 2 2 2 2 2 2 3 4 4 4 4 5 5 5 5 5 5 5 5 5 5 5 6 6 6 6 7
0 1 1 1 1 1 1 1 2 2 3 3 2 2 1 2 2 2 3 3 4 6 6 7 7 7 7 7 7 7 7 6 6 6 6 7 7 7
1 1 2 1 1 1 1 1 2 3 3 3 2 2 2 2 2 2 2 3 4 6 8 8 8 8 8 8 8 8 8 8 8 8 8 8 8 7
3 3 3 2 2 2 1 1 2 2 2 3 3 2 2 1 2 2 3 3 4 6 7 9 9 9 9 9 9 9 10 10 10 9 9 9 9 9
3 4 4 4 4 3 2 2 2 2 2 2 3 3 2 1 1 3 3 3 4 4 5 6 7 9 9 9 10 10 11 12 11 11 10 10 10 10
3 3 4 4 5 4 3 3 3 2 2 2 3 2 3 2 3 3 4 4 4 4 4 4 4 5 6 8 10 11 12 12 12 12 11 11 11 11
4 4 4 4 5 5 6 6 5 4 4 4 4 4 5 4 3 3 3 3 4 2 3 4 3 5 6 6 8 10 11 12 12 12 12 12 11 11
5 4 4 4 3 4 5 5 6 7 8 6 6 7 6 5 4 5 5 5 6 3 2 5 4 5 6 7 9 10 10 11 11 12 12 12 13 12
5 5 5 5 4 4 4 4 5 6 7 7 7 8 7 6 6 5 5 5 5 4 4 4 4 5 6 7 10 11 12 12 12 12 12 12 13 13
5 5 5 6 6 5 4 5 6 6 6 8 9 9 9 8 6 3 3 4 5 4 4 4 4 4 5 6 7 10 12 12 12 12 12 12 12 12
4 4 5 6 5 5 5 5 6 7 6 5 5 6 7 6 7 7 6 5 5 5 4 4 3 3 4 4 4 5 7 10 11 12 12 12 11 8
5 5 4 6 6 6 6 6 8 7 5 5 5 5 4 4 5 6 7 6 6 6 4 4 4 3 4 4 4 4 5 5 6 7 9 10 11 10
6 5 5 6 6 6 5 6 7 5 3 3 4 5 5 5 5 5 7 8 9 9 7 6 5 5 4 5 5 4 4 5 5 5 5 7 9 11
6 7 6 7 6 5 6 7 5 3 3 4 5 6 6 6 5 4 5 6 7 8 7 7 6 6 6 6 6 5 4 4 4 5 4 5 5 5
6 5 6 6 5 5 4 4 4 4 5 6 6 6 5 5 5 4 4 4 4 6 6 7 8 7 6 7 6 6 5 4 4 4 4 5 5 6
4 3 3 3 3 4 4 4 4 4 5 6 6 6 6 6 6 4 4 4 5 6 6 4 5 6 6 5 5 6 5 4 4 4 4 5 5 5
3 4 5 5 5 6 5 5 5 5 6 6 6 6 6 6 6 5 4 5 6 6 6 4 3 2 2 4 6 6 5 5 4 4 4 5 6 5
4 5 6 6 6 6 6 6 6 6 5 5 6 6 6 6 6 6 5 6 6 7 6 4 3 3 5 6 4 6 6 5 4 4 4 5 6 6
5 6 6 6 6 6 6 6 6 5 5 5 6 6 6 6 6 6 6 7 7 6 5 4 4 5 6 6 5 5 7 6 5 5 5 5 5 6
5 6 6 5 5 5 5 5 5 5 5 5 6 6 5 5 6 6 6 7 6 6 6 6 6 5 4 3 4 4 4 7 8 6 5 4 4 4
5 5 5 5 5 4 5 4 5 5 5 5 5 5 5 5 6 6 6 6 5 6 7 5 3 3 3 4 6 6 6 4 6 8 8 7 5 4
5 5 5 5 5 4 4 5 5 5 5 5 5 5 5 5 5 5 5 5 4 5 5 4 3 3 4 5 5 6 6 5 4 4 5 7 9 10
Wind_Direction
204 200 207 217 195 200 192 188 186 260 290 271 270 283 273 267 268 248 249 253 239 237 233 232 231 229 234 238 236 220 215 213 208 209 212 212 219 229
189 173 245 252 217 195 194 202 202 207 253 266 254 275 281 291 275 257 250 255 253 247 239 238 241 241 238 237 237 234 230 221 216 214 217 220 225 233
228 168 262 262 238 218 190 196 203 201 243 276 261 274 263 283 305 286 268 261 262 252 248 247 246 243 241 239 236 234 231 229 226 223 225 228 229 234
234 229 268 264 271 254 217 219 223 216 224 262 279 266 259 273 287 284 281 269 262 260 254 252 252 248 247 244 239 235 232 230 230 228 228 230 231 234
228 232 250 241 258 257 244 247 245 233 222 239 271 267 260 275 293 289 285 277 276 270 259 256 256 254 252 247 242 236 233 232 232 231 230 231 232 234
239 237 241 233 238 242 242 241 237 234 225 240 264 273 267 272 266 272 284 274 273 280 272 267 260 256 255 250 245 241 235 231 229 229 231 233 233 233
256 250 248 242 236 230 235 230 223 230 236 246 258 267 261 254 257 255 265 282 269 255 271 273 267 265 262 256 250 246 239 233 230 229 230 232 231 231
254 261 259 251 249 240 234 227 217 222 231 236 249 252 254 245 246 248 256 275 280 249 250 272 255 261 259 253 250 243 238 233 231 230 229 229 229 230
245 254 263 261 241 245 245 242 239 233 222 223 238 246 252 239 232 244 241 248 256 257 242 270 259 263 261 254 247 244 240 236 233 231 230 231 230 229
245 244 247 256 250 237 243 253 257 255 242 233 240 248 251 244 229 237 248 257 265 249 215 256 263 264 267 259 248 238 237 235 234 233 233 234 233 230
250 246 241 249 250 233 236 257 271 273 261 248 247 252 253 247 228 231 244 258 273 264 213 238 263 268 266 259 255 240 236 235 235 235 235 235 233 229
261 259 249 247 251 230 234 246 265 275 279 277 268 268 264 258 230 225 232 241 261 266 224 219 253 257 273 256 252 249 241 240 236 235 235 234 228 223
257 263 262 251 248 237 227 237 250 260 267 268 273 276 278 269 254 237 230 230 240 253 234 206 237 238 249 271 269 254 244 244 241 240 235 230 223 215
250 255 257 253 249 247 239 247 253 259 267 270 274 278 278 276 271 257 241 235 236 247 244 215 228 231 242 262 271 269 253 240 236 237 236 228 223 221
249 248 253 251 247 251 249 247 246 249 252 263 269 271 273 274 275 272 262 251 251 253 247 232 235 239 238 249 257 261 265 258 239 237 233 226 224 221
261 264 257 252 245 246 256 254 241 238 240 253 263 269 274 273 270 271 270 263 264 267 257 244 235 232 241 249 251 258 253 249 246 238 234 232 226 221
258 269 269 267 265 265 263 260 253 249 250 255 261 269 272 269 269 264 259 260 256 266 272 261 245 236 238 245 251 252 256 257 252 238 230 238 238 228
213 250 255 255 257 260 262 264 260 257 257 258 258 259 265 268 271 270 257 251 256 263 268 269 264 257 255 254 229 246 254 256 256 241 228 235 247 238
230 249 252 253 255 255 256 256 259 260 257 257 260 261 259 260 263 264 259 258 260 261 262 258 248 243 262 273 254 221 242 253 246 244 238 234 244 246
248 252 254 255 256 258 257 259 263 264 259 258 260 262 258 255 253 254 254 255 258 261 261 253 242 240 244 259 268 262 228 237 242 245 246 244 254 253
257 259 260 259 259 260 260 260 262 264 265 262 260 259 258 255 254 252 251 249 252 258 258 259 257 249 250 252 261 266 257 227 228 235 235 238 253 251
263 262 262 259 255 255 257 259 264 267 269 265 260 259 257 253 256 257 254 253 253 257 263 269 269 246 232 243 257 267 272 268 243 238 233 223 228 235
263 263 262 258 257 260 261 262 266 269 269 269 267 265 259 257 258 257 256 253 257 263 272 277 275 262 253 250 260 269 274 275 270 260 255 242 240 250
Height
1545 1545 1545 1544 1544 1543 1543 1543 1542 1540 1539 1539 1539 1538 1537 1536 1535 1534 1534 1533 1532 1531 1530 1529 1529 1528 1528 1528 1528 1528 1529 1529 1529 1530 1530 1530 1531 1531
1544 1543 1543 1543 1542 1542 1542 1541 1541 1540 1538 1537 1537 1537 1536 1535 1534 1533 1532 1531 1530 1529 1529 1528 1527 1527 1526 1526 1526 1526 1526 1526 1527 1527 1527 1527 1528 1528
1542 1542 1541 1541 1541 1540 1540 1539 1539 1538 1537 1536 1535 1535 1534 1533 1532 1531 1530 1529 1528 1527 1527 1526 1525 1525 1524 1524 1524 1523 1523 1524 1524 1524 1524 1524 1524 1524
1540 1540 1539 1539 1539 1538 1538 1537 1537 1536 1535 1533 1533 1532 1532 1531 1530 1529 1528 1527 1526 1525 1524 1523 1523 1522 1522 1521 1521 1520 1520 1520 1520 1520 1521 1521 1521 1521
1538 1538 1538 1537 1536 1536 1536 1535 1535 1534 1533 1532 1530 1530 1529 1528 1527 1526 1525 1524 1523 1522 1522 1520 1520 1519 1518 1518 1517 1517 1517 1517 1517 1517 1517 1517 1517 1517
1536 1536 1535 1535 1534 1533 1533 1532 1532 1531 1530 1529 1528 1527 1526 1525 1524 1523 1522 1521 1520 1519 1518 1517 1516 1515 1515 1514 1514 1513 1513 1513 1513 1513 1513 1513 1513 1513
1534 1533 1533 1532 1531 1531 1530 1529 1528 1527 1527 1526 1524 1523 1522 1522 1521 1520 1518 1517 1516 1515 1514 1514 1513 1512 1511 1510 1510 1509 1509 1509 1509 1508 1508 1508 1509 1509
1530 1530 1529 1529 1528 1528 1527 1526 1525 1524 1523 1522 1520 1519 1518 1518 1517 1516 1515 1513 1512 1512 1510 1509 1509 1507 1507 1506 1505 1505 1504 1504 1504 1504 1504 1504 1504 1504
1527 1526 1526 1525 1524 1524 1523 1522 1521 1521 1520 1519 1517 1515 1515 1514 1513 1512 1511 1510 1508 1508 1506 1504 1504 1503 1502 1501 1501 1500 1500 1500 1499 1499 1499 1499 1499 1499
1523 1522 1522 1521 1520 1520 1519 1518 1517 1516 1515 1514 1513 1512 1511 1510 1509 1509 1507 1506 1505 1504 1502 1500 1499 1498 1497 1496 1496 1495 1495 1494 1494 1494 1494 1494 1494 1494
1519 1518 1517 1517 1516 1516 1515 1513 1512 1512 1511 1510 1509 1507 1506 1505 1505 1504 1502 1501 1499 1498 1497 1496 1494 1493 1492 1491 1491 1490 1489 1489 1489 1489 1488 1488 1489 1489
1514 1514 1513 1512 1512 1511 1510 1509 1507 1507 1506 1504 1504 1503 1501 1500 1499 1498 1497 1496 1494 1492 1492 1491 1489 1489 1486 1485 1485 1485 1484 1483 1483 1483 1483 1483 1483 1483
1509 1509 1508 1508 1507 1506 1505 1504 1503 1502 1501 1499 1498 1496 1495 1494 1493 1492 1492 1491 1489 1487 1487 1486 1484 1483 1482 1480 1479 1479 1479 1478 1478 1477 1477 1477 1477 1478
1504 1504 1503 1503 1502 1501 1500 1499 1498 1497 1496 1494 1492 1491 1489 1488 1487 1487 1486 1485 1484 1483 1482 1481 1479 1478 1477 1475 1474 1473 1473 1473 1472 1471 1471 1471 1471 1472
1499 1498 1498 1497 1496 1495 1495 1494 1493 1492 1490 1488 1486 1485 1484 1483 1482 1481 1480 1479 1478 1477 1476 1474 1473 1472 1471 1470 1468 1468 1467 1467 1467 1467 1466 1465 1466 1466
1494 1493 1492 1491 1490 1489 1488 1488 1487 1486 1484 1483 1481 1479 1478 1477 1476 1474 1473 1472 1471 1470 1469 1468 1467 1467 1465 1464 1463 1462 1462 1461 1461 1461 1461 1461 1461 1461
1488 1487 1486 1485 1484 1483 1482 1481 1481 1480 1478 1477 1475 1473 1472 1471 1469 1468 1467 1466 1464 1463 1462 1462 1461 1460 1459 1458 1457 1456 1456 1456 1455 1455 1455 1455 1455 1455
1483 1481 1480 1479 1478 1477 1476 1475 1474 1473 1472 1470 1468 1467 1465 1464 1463 1462 1461 1459 1458 1457 1456 1455 1455 1454 1453 1452 1452 1450 1450 1450 1450 1449 1449 1449 1449 1449
1477 1475 1474 1473 1472 1471 1470 1469 1468 1467 1466 1464 1462 1460 1458 1457 1456 1455 1454 1453 1452 1451 1450 1449 1449 1447 1446 1445 1445 1446 1445 1444 1444 1444 1444 1444 1444 1444
1471 1470 1468 1467 1466 1465 1464 1463 1462 1461 1459 1457 1454 1452 1451 1449 1448 1447 1447 1446 1445 1445 1444 1443 1442 1442 1441 1440 1440 1440 1440 1439 1439 1438 1438 1438 1438 1439
1465 1464 1463 1461 1460 1459 1458 1457 1456 1454 1452 1450 1447 1445 1444 1442 1441 1440 1440 1439 1439 1438 1437 1437 1436 1437 1436 1436 1435 1433 1434 1435 1434 1434 1433 1433 1433 1432
1460 1459 1457 1456 1455 1454 1453 1451 1450 1448 1446 1443 1441 1440 1438 1437 1435 1434 1434 1433 1433 1432 1432 1432 1431 1431 1431 1430 1429 1428 1428 1429 1429 1429 1429 1429 1428 1427
1454 1453 1452 1450 1449 1449 1447 1446 1444 1442 1440 1438 1436 1434 1433 1432 1431 1429 1428 1428 1427 1427 1426 1426 1426 1425 1425 1425 1424 1423 1423 1423 1423 1423 1423 1423 1423 1423